Time,TemperatureF,DewpointF,PressureIn,WindDirection,WindDirectionDegrees,WindSpeedMPH,WindSpeedGustMPH,Humidity,HourlyPrecipIn,Conditions,Clouds,dailyrainin,SoftwareType,DateUTC
2016-07-23 00:00:00,81.6,61.2,29.81,SSE,154,10.4,10.4,50,0.00,CLR,FEW,0.00,WeatherDisplay:10.37,2016-07-23 04:00:00,
2016-07-23 00:05:00,81.3,60.9,29.81,SSE,168,10.4,10.4,50,0.00,CLR,FEW,0.00,WeatherDisplay:10.37,2016-07-23 04:05:00,
2016-07-23 00:10:00,81.6,61.2,29.81,South,171,8.1,8.1,50,0.00,CLR,FEW,0.00,WeatherDisplay:10.37,2016-07-23 04:10:00,
2016-07-23 00:15:00,80.8,60.4,29.81,SE,138,9.2,9.2,50,0.00,CLR,FEW,0.00,WeatherDisplay:10.37,2016-07-23 04:15:00,
2016-07-23 00:20:00,80.9,60.5,29.81,SE,141,13.8,13.8,50,0.00,CLR,FEW,0.00,WeatherDisplay:10.37,2016-07-23 04:20:00,
2016-07-23 00:25:00,80.9,60.5,29.81,SSE,151,12.7,12.7,50,0.00,CLR,FEW,0.00,WeatherDisplay:10.37,2016-07-23 04:25:00,
2016-07-23 00:30:00,80.5,60.1,29.81,SSE,164,8.0,8.0,50,0.00,CLR,FEW,0.00,WeatherDisplay:10.37,2016-07-23 04:30:00,
2016-07-23 00:35:00,80.5,60.1,29.81,South,171,9.3,9.3,50,0.00,CLR,FEW,0.00,WeatherDisplay:10.37,2016-07-23 04:35:00,
2016-07-23 00:40:00,80.3,60.0,29.81,SSW,210,9.2,9.2,50,0.00,CLR,FEW,0.00,WeatherDisplay:10.37,2016-07-23 04:40:00,
2016-07-23 00:45:00,80.1,59.8,29.81,SE,124,9.2,9.2,50,0.00,CLR,FEW,0.00,WeatherDisplay:10.37,2016-07-23 04:45:00,
2016-07-23 00:50:00,79.8,59.5,29.81,SE,128,9.2,9.2,50,0.00,CLR,FEW,0.00,WeatherDisplay:10.37,2016-07-23 04:50:00,
2016-07-23 00:55:00,79.6,59.3,29.82,SSE,148,8.1,8.1,50,0.00,CLR,FEW,0.00,WeatherDisplay:10.37,2016-07-23 04:55:00,
2016-07-23 01:00:00,79.5,59.2,29.82,SSW,203,8.1,8.1,50,0.00,CLR,FEW,0.00,WeatherDisplay:10.37,2016-07-23 05:00:00,
2016-07-23 01:05:00,79.5,59.2,29.82,SSE,167,4.6,4.6,50,0.00,CLR,FEW,0.00,WeatherDisplay:10.37,2016-07-23 05:05:00,
2016-07-23 01:10:00,79.4,59.1,29.82,SSE,164,2.5,2.7,50,0.00,CLR,FEW,0.00,WeatherDisplay:10.37,2016-07-23 05:10:00,
2016-07-23 01:15:00,79.2,59.0,29.82,SSW,203,4.8,4.8,50,0.00,CLR,FEW,0.00,WeatherDisplay:10.37,2016-07-23 05:15:00,
2016-07-23 01:20:00,79.1,58.9,29.82,SSW,203,3.2,3.2,50,0.00,CLR,FEW,0.00,WeatherDisplay:10.37,2016-07-23 05:20:00,
2016-07-23 01:25:00,78.8,58.6,29.82,South,178,3.5,3.5,50,0.00,CLR,FEW,0.00,WeatherDisplay:10.37,2016-07-23 05:25:00,
2016-07-23 01:30:00,78.6,58.4,29.82,SSE,155,3.5,3.5,50,0.00,CLR,FEW,0.00,WeatherDisplay:10.37,2016-07-23 05:30:00,
2016-07-23 01:35:00,78.7,58.5,29.82,SW,222,8.1,8.1,50,0.00,CLR,FEW,0.00,WeatherDisplay:10.37,2016-07-23 05:35:00,
2016-07-23 01:40:00,78.6,58.4,29.82,SSE,160,3.5,3.5,50,0.00,CLR,FEW,0.00,WeatherDisplay:10.37,2016-07-23 05:40:00,
2016-07-23 01:45:00,78.7,58.5,29.82,South,185,3.5,3.5,50,0.00,CLR,FEW,0.00,WeatherDisplay:10.37,2016-07-23 05:45:00,
2016-07-23 01:50:00,78.5,58.3,29.82,SSE,167,5.2,5.2,50,0.00,CLR,FEW,0.00,WeatherDisplay:10.37,2016-07-23 05:50:00,
2016-07-23 01:55:00,78.0,57.9,29.82,SSW,202,6.9,6.9,50,0.00,CLR,FEW,0.00,WeatherDisplay:10.37,2016-07-23 05:55:00,
2016-07-23 02:00:00,78.0,57.9,29.82,South,185,5.8,5.8,50,0.00,CLR,FEW,0.00,WeatherDisplay:10.37,2016-07-23 06:00:00,
2016-07-23 02:05:00,78.0,57.9,29.82,South,189,4.6,4.6,50,0.00,CLR,FEW,0.00,WeatherDisplay:10.37,2016-07-23 06:05:00,
2016-07-23 02:10:00,78.0,57.9,29.82,SSW,199,4.4,4.4,50,0.00,CLR,FEW,0.00,WeatherDisplay:10.37,2016-07-23 06:10:00,
2016-07-23 02:15:00,77.7,57.6,29.82,South,182,5.8,5.8,50,0.00,CLR,FEW,0.00,WeatherDisplay:10.37,2016-07-23 06:15:00,
2016-07-23 02:20:00,77.7,57.6,29.82,South,179,4.6,4.6,50,0.00,CLR,FEW,0.00,WeatherDisplay:10.37,2016-07-23 06:20:00,
2016-07-23 02:25:00,77.6,57.5,29.82,South,175,5.8,5.8,50,0.00,CLR,FEW,0.00,WeatherDisplay:10.37,2016-07-23 06:25:00,
2016-07-23 02:30:00,77.4,57.3,29.82,SSW,199,5.1,5.1,50,0.00,CLR,FEW,0.00,WeatherDisplay:10.37,2016-07-23 06:30:00,
2016-07-23 02:35:00,77.6,57.5,29.82,South,174,5.8,5.8,50,0.00,CLR,FEW,0.00,WeatherDisplay:10.37,2016-07-23 06:35:00,
2016-07-23 02:41:00,77.7,57.6,29.82,South,175,4.8,4.8,50,0.00,CLR,FEW,0.00,WeatherDisplay:10.37,2016-07-23 06:41:00,
2016-07-23 02:46:00,77.5,57.4,29.82,SSE,157,3.5,3.5,50,0.00,CLR,FEW,0.00,WeatherDisplay:10.37,2016-07-23 06:46:00,
2016-07-23 02:51:00,77.5,57.4,29.82,East,82,4.6,4.6,50,0.00,CLR,FEW,0.00,WeatherDisplay:10.37,2016-07-23 06:51:00,
2016-07-23 02:56:00,77.5,57.4,29.82,ESE,123,3.5,3.5,50,0.00,CLR,FEW,0.00,WeatherDisplay:10.37,2016-07-23 06:56:00,
2016-07-23 03:01:00,77.4,57.3,29.82,South,189,3.5,3.5,50,0.00,CLR,FEW,0.00,WeatherDisplay:10.37,2016-07-23 07:01:00,
2016-07-23 03:06:00,77.0,56.9,29.82,SSE,167,5.8,5.8,50,0.00,CLR,FEW,0.00,WeatherDisplay:10.37,2016-07-23 07:06:00,
2016-07-23 03:11:00,76.8,56.8,29.82,SSW,195,8.1,8.1,50,0.00,CLR,FEW,0.00,WeatherDisplay:10.37,2016-07-23 07:11:00,
2016-07-23 03:16:00,76.9,56.8,29.82,SSW,205,6.0,6.0,50,0.00,CLR,FEW,0.00,WeatherDisplay:10.37,2016-07-23 07:16:00,
2016-07-23 03:21:00,76.8,56.8,29.82,SW,229,4.6,4.6,50,0.00,CLR,FEW,0.00,WeatherDisplay:10.37,2016-07-23 07:21:00,
2016-07-23 03:26:00,76.8,56.8,29.82,SW,229,8.1,8.1,50,0.00,CLR,FEW,0.00,WeatherDisplay:10.37,2016-07-23 07:26:00,
2016-07-23 03:31:00,77.1,57.0,29.82,SSW,209,9.2,9.2,50,0.00,CLR,FEW,0.00,WeatherDisplay:10.37,2016-07-23 07:31:00,
2016-07-23 03:36:00,77.6,57.5,29.82,South,185,8.1,8.1,50,0.00,CLR,FEW,0.00,WeatherDisplay:10.37,2016-07-23 07:36:00,
2016-07-23 03:41:00,77.4,57.3,29.83,SW,234,5.6,5.6,50,0.00,CLR,FEW,0.00,WeatherDisplay:10.37,2016-07-23 07:41:00,
2016-07-23 03:46:00,77.3,57.2,29.82,SSE,147,8.1,8.1,50,0.00,CLR,FEW,0.00,WeatherDisplay:10.37,2016-07-23 07:46:00,
2016-07-23 03:51:00,77.7,57.6,29.82,WSW,253,5.8,5.8,50,0.00,CLR,FEW,0.00,WeatherDisplay:10.37,2016-07-23 07:51:00,
2016-07-23 03:56:00,77.4,57.3,29.82,SSE,167,6.9,6.9,50,0.00,CLR,FEW,0.00,WeatherDisplay:10.37,2016-07-23 07:56:00,
2016-07-23 04:01:00,76.9,56.8,29.82,South,182,5.8,5.8,50,0.00,CLR,FEW,0.00,WeatherDisplay:10.37,2016-07-23 08:01:00,
2016-07-23 04:06:00,77.1,57.0,29.82,South,189,4.6,4.6,50,0.00,CLR,FEW,0.00,WeatherDisplay:10.37,2016-07-23 08:06:00,
2016-07-23 04:11:00,76.9,56.8,29.82,SSW,203,3.5,3.5,50,0.00,CLR,FEW,0.00,WeatherDisplay:10.37,2016-07-23 08:11:00,
2016-07-23 04:16:00,76.7,56.7,29.82,SSW,198,6.9,6.9,50,0.00,CLR,FEW,0.00,WeatherDisplay:10.37,2016-07-23 08:16:00,
2016-07-23 04:21:00,76.9,56.8,29.83,South,178,6.9,6.9,50,0.00,CLR,FEW,0.00,WeatherDisplay:10.37,2016-07-23 08:21:00,
2016-07-23 04:26:00,76.8,56.8,29.83,WNW,299,3.5,3.5,50,0.00,CLR,FEW,0.00,WeatherDisplay:10.37,2016-07-23 08:26:00,
2016-07-23 04:31:00,76.8,56.8,29.83,WSW,243,3.7,3.7,50,0.00,CLR,FEW,0.00,WeatherDisplay:10.37,2016-07-23 08:31:00,
2016-07-23 04:36:00,76.8,56.8,29.83,South,189,5.8,5.8,50,0.00,CLR,FEW,0.00,WeatherDisplay:10.37,2016-07-23 08:36:00,
2016-07-23 04:41:00,76.7,56.7,29.83,SSW,212,10.4,10.4,50,0.00,CLR,FEW,0.00,WeatherDisplay:10.37,2016-07-23 08:41:00,
2016-07-23 04:46:00,76.7,56.7,29.83,SSW,200,4.6,4.6,50,0.00,CLR,FEW,0.00,WeatherDisplay:10.37,2016-07-23 08:46:00,
2016-07-23 04:51:00,76.8,56.8,29.83,SSW,198,3.5,3.5,50,0.00,CLR,FEW,0.00,WeatherDisplay:10.37,2016-07-23 08:51:00,
2016-07-23 04:56:00,76.5,56.5,29.83,SSW,206,3.5,3.5,50,0.00,CLR,FEW,0.00,WeatherDisplay:10.37,2016-07-23 08:56:00,
2016-07-23 05:01:00,76.7,56.7,29.83,SSW,192,3.5,3.5,50,0.00,CLR,FEW,0.00,WeatherDisplay:10.37,2016-07-23 09:01:00,
2016-07-23 05:06:00,76.3,56.3,29.84,South,182,5.8,5.8,50,0.00,CLR,FEW,0.00,WeatherDisplay:10.37,2016-07-23 09:06:00,
2016-07-23 05:11:00,76.5,56.5,29.83,SW,224,5.8,5.8,50,0.00,CLR,FEW,0.00,WeatherDisplay:10.37,2016-07-23 09:11:00,
2016-07-23 05:16:00,76.3,56.3,29.84,SSE,157,4.6,4.6,50,0.00,CLR,FEW,0.00,WeatherDisplay:10.37,2016-07-23 09:16:00,
2016-07-23 05:21:00,76.2,56.2,29.83,SE,144,3.5,3.5,50,0.00,CLR,FEW,0.00,WeatherDisplay:10.37,2016-07-23 09:21:00,
2016-07-23 05:26:00,76.5,56.5,29.84,WSW,248,4.6,4.6,50,0.00,CLR,FEW,0.00,WeatherDisplay:10.37,2016-07-23 09:26:00,
2016-07-23 05:31:00,76.2,56.2,29.84,SSW,203,5.8,5.8,50,0.00,CLR,FEW,0.00,WeatherDisplay:10.37,2016-07-23 09:31:00,
2016-07-23 05:36:00,76.2,56.2,29.84,SSW,202,6.9,6.9,50,0.00,CLR,FEW,0.00,WeatherDisplay:10.37,2016-07-23 09:36:00,
2016-07-23 05:41:00,76.2,56.2,29.84,SSW,209,6.9,6.9,50,0.00,CLR,FEW,0.00,WeatherDisplay:10.37,2016-07-23 09:41:00,
2016-07-23 05:46:00,76.1,56.1,29.84,SW,226,5.8,5.8,50,0.00,CLR,FEW,0.00,WeatherDisplay:10.37,2016-07-23 09:46:00,
2016-07-23 05:51:00,76.2,56.2,29.84,SW,216,5.8,5.8,50,0.00,CLR,FEW,0.00,WeatherDisplay:10.37,2016-07-23 09:51:00,
2016-07-23 05:56:00,76.2,56.2,29.85,South,181,6.3,6.3,50,0.00,CLR,FEW,0.00,WeatherDisplay:10.37,2016-07-23 09:56:00,
2016-07-23 06:01:00,75.9,55.9,29.85,SE,138,5.8,5.8,50,0.00,CLR,FEW,0.00,WeatherDisplay:10.37,2016-07-23 10:01:00,
2016-07-23 06:06:00,75.8,55.8,29.85,SE,133,5.8,5.8,50,0.00,CLR,FEW,0.00,WeatherDisplay:10.37,2016-07-23 10:06:00,
2016-07-23 06:11:00,75.9,55.9,29.85,SSE,152,8.3,8.3,50,0.00,CLR,FEW,0.00,WeatherDisplay:10.37,2016-07-23 10:11:00,
2016-07-23 06:16:00,76.2,56.2,29.85,South,184,8.1,8.1,50,0.00,CLR,FEW,0.00,WeatherDisplay:10.37,2016-07-23 10:16:00,
2016-07-23 06:21:00,76.3,56.3,29.85,ESE,107,4.6,4.6,50,0.00,CLR,FEW,0.00,WeatherDisplay:10.37,2016-07-23 10:21:00,
2016-07-23 06:26:00,76.4,56.4,29.85,SSE,151,9.2,9.2,50,0.00,CLR,FEW,0.00,WeatherDisplay:10.37,2016-07-23 10:26:00,
2016-07-23 06:31:00,76.7,56.7,29.85,SSE,161,5.8,5.8,50,0.00,CLR,FEW,0.00,WeatherDisplay:10.37,2016-07-23 10:31:00,
2016-07-23 06:36:00,76.7,56.7,29.85,SE,128,5.8,5.8,50,0.00,CLR,FEW,0.00,WeatherDisplay:10.37,2016-07-23 10:36:00,
2016-07-23 06:41:00,76.7,56.7,29.85,SSE,158,6.0,6.0,50,0.00,CLR,FEW,0.00,WeatherDisplay:10.37,2016-07-23 10:41:00,
2016-07-23 06:46:00,76.8,56.8,29.85,SW,226,4.6,4.6,50,0.00,CLR,FEW,0.00,WeatherDisplay:10.37,2016-07-23 10:46:00,
2016-07-23 06:51:00,76.8,56.8,29.85,South,189,4.6,4.6,50,0.00,CLR,FEW,0.00,WeatherDisplay:10.37,2016-07-23 10:51:00,
2016-07-23 06:56:00,77.0,56.9,29.85,West,280,5.8,5.8,50,0.00,CLR,FEW,0.00,WeatherDisplay:10.37,2016-07-23 10:56:00,
2016-07-23 07:01:00,77.0,56.9,29.85,SSE,165,6.9,6.9,50,0.00,CLR,FEW,0.00,WeatherDisplay:10.37,2016-07-23 11:01:00,
2016-07-23 07:06:00,77.2,57.1,29.85,SSW,206,7.8,7.8,50,0.00,CLR,FEW,0.00,WeatherDisplay:10.37,2016-07-23 11:06:00,
2016-07-23 07:11:00,77.4,57.3,29.86,SE,127,6.9,6.9,50,0.00,CLR,FEW,0.00,WeatherDisplay:10.37,2016-07-23 11:11:00,
2016-07-23 07:16:00,77.7,57.6,29.86,SSW,213,9.2,9.2,50,0.00,CLR,FEW,0.00,WeatherDisplay:10.37,2016-07-23 11:16:00,
2016-07-23 07:21:00,77.7,57.6,29.86,South,184,8.1,8.1,50,0.00,CLR,FEW,0.00,WeatherDisplay:10.37,2016-07-23 11:21:00,
2016-07-23 07:26:00,77.9,57.8,29.86,SSE,165,8.1,8.1,50,0.00,CLR,FEW,0.00,WeatherDisplay:10.37,2016-07-23 11:26:00,
2016-07-23 07:31:00,77.9,57.8,29.86,SSW,193,6.9,6.9,50,0.00,CLR,FEW,0.00,WeatherDisplay:10.37,2016-07-23 11:31:00,
2016-07-23 07:36:00,77.8,57.7,29.86,South,188,9.2,9.2,50,0.00,CLR,FEW,0.00,WeatherDisplay:10.37,2016-07-23 11:36:00,
2016-07-23 07:41:00,77.9,57.8,29.86,South,179,5.8,5.8,50,0.00,CLR,FEW,0.00,WeatherDisplay:10.37,2016-07-23 11:41:00,
2016-07-23 07:46:00,78.5,58.3,29.85,SSW,192,11.5,11.5,50,0.00,CLR,FEW,0.00,WeatherDisplay:10.37,2016-07-23 11:46:00,
2016-07-23 07:51:00,78.6,58.4,29.85,SSW,192,8.1,8.1,50,0.00,CLR,FEW,0.00,WeatherDisplay:10.37,2016-07-23 11:51:00,
2016-07-23 07:56:00,79.1,58.9,29.85,South,181,8.1,8.1,50,0.00,CLR,FEW,0.00,WeatherDisplay:10.37,2016-07-23 11:56:00,
2016-07-23 08:01:00,79.3,59.0,29.85,SE,127,8.1,8.1,50,0.00,CLR,FEW,0.00,WeatherDisplay:10.37,2016-07-23 12:01:00,
2016-07-23 08:06:00,79.4,59.1,29.85,SSE,161,10.4,10.4,50,0.00,CLR,FEW,0.00,WeatherDisplay:10.37,2016-07-23 12:06:00,
2016-07-23 08:11:00,79.8,59.5,29.85,South,191,8.1,8.1,50,0.00,CLR,FEW,0.00,WeatherDisplay:10.37,2016-07-23 12:11:00,
2016-07-23 08:17:00,79.9,59.6,29.85,South,184,6.2,6.2,50,0.00,CLR,FEW,0.00,WeatherDisplay:10.37,2016-07-23 12:17:00,
2016-07-23 08:22:00,80.3,60.0,29.86,East,86,4.6,4.6,50,0.00,CLR,FEW,0.00,WeatherDisplay:10.37,2016-07-23 12:22:00,
2016-07-23 08:27:00,80.7,60.3,29.86,SE,143,9.8,9.8,50,0.00,CLR,FEW,0.00,WeatherDisplay:10.37,2016-07-23 12:27:00,
2016-07-23 08:32:00,80.7,60.3,29.86,SSW,205,4.6,4.6,50,0.00,CLR,FEW,0.00,WeatherDisplay:10.37,2016-07-23 12:32:00,
2016-07-23 08:37:00,80.9,60.5,29.86,South,172,9.6,9.6,50,0.00,CLR,FEW,0.00,WeatherDisplay:10.37,2016-07-23 12:37:00,
2016-07-23 08:42:00,80.7,60.3,29.86,SSE,158,4.6,4.6,50,0.00,CLR,FEW,0.00,WeatherDisplay:10.37,2016-07-23 12:42:00,
2016-07-23 08:47:00,81.0,60.6,29.86,SSW,206,8.1,8.1,50,0.00,CLR,FEW,0.00,WeatherDisplay:10.37,2016-07-23 12:47:00,
2016-07-23 08:52:00,80.8,60.4,29.86,SSE,157,10.4,10.4,50,0.00,CLR,FEW,0.00,WeatherDisplay:10.37,2016-07-23 12:52:00,
2016-07-23 08:57:00,80.8,60.4,29.85,SW,226,8.1,8.1,50,0.00,CLR,FEW,0.00,WeatherDisplay:10.37,2016-07-23 12:57:00,
2016-07-23 09:02:00,81.3,60.9,29.86,SSW,203,2.3,2.3,50,0.00,CLR,FEW,0.00,WeatherDisplay:10.37,2016-07-23 13:02:00,
2016-07-23 09:07:00,81.8,61.3,29.86,SSW,195,13.8,13.8,50,0.00,CLR,FEW,0.00,WeatherDisplay:10.37,2016-07-23 13:07:00,
2016-07-23 09:12:00,81.7,61.2,29.85,ESE,112,9.2,9.2,50,0.00,CLR,FEW,0.00,WeatherDisplay:10.37,2016-07-23 13:12:00,
2016-07-23 09:17:00,82.3,61.8,29.85,South,169,8.1,8.1,50,0.00,CLR,FEW,0.00,WeatherDisplay:10.37,2016-07-23 13:17:00,
2016-07-23 09:22:00,82.6,62.1,29.85,South,185,6.9,6.9,50,0.00,CLR,FEW,0.00,WeatherDisplay:10.37,2016-07-23 13:22:00,
2016-07-23 09:27:00,82.8,62.3,29.85,SSE,165,9.2,9.2,50,0.00,CLR,FEW,0.00,WeatherDisplay:10.37,2016-07-23 13:27:00,
2016-07-23 09:32:00,83.1,62.5,29.85,SSE,154,10.4,10.4,50,0.00,CLR,FEW,0.00,WeatherDisplay:10.37,2016-07-23 13:32:00,
2016-07-23 09:37:00,83.1,62.5,29.85,SW,220,15.0,15.0,50,0.00,CLR,FEW,0.00,WeatherDisplay:10.37,2016-07-23 13:37:00,
2016-07-23 09:42:00,83.0,62.4,29.85,SSE,150,9.2,9.2,50,0.00,CLR,FEW,0.00,WeatherDisplay:10.37,2016-07-23 13:42:00,
2016-07-23 09:47:00,83.8,63.2,29.85,WNW,288,10.4,10.4,50,0.00,CLR,FEW,0.00,WeatherDisplay:10.37,2016-07-23 13:47:00,
2016-07-23 09:52:00,84.0,63.4,29.85,WSW,246,4.6,4.6,50,0.00,CLR,FEW,0.00,WeatherDisplay:10.37,2016-07-23 13:52:00,
2016-07-23 09:57:00,84.2,63.5,29.85,South,175,10.4,10.4,50,0.00,CLR,FEW,0.00,WeatherDisplay:10.37,2016-07-23 13:57:00,
2016-07-23 10:02:00,84.7,64.0,29.85,SSW,206,11.5,11.5,50,0.00,CLR,FEW,0.00,WeatherDisplay:10.37,2016-07-23 14:02:00,
2016-07-23 10:07:00,84.1,63.5,29.85,ESE,123,13.8,13.8,50,0.00,CLR,FEW,0.00,WeatherDisplay:10.37,2016-07-23 14:07:00,
2016-07-23 10:12:00,83.9,63.3,29.85,SE,144,12.7,12.7,50,0.00,CLR,FEW,0.00,WeatherDisplay:10.37,2016-07-23 14:12:00,
2016-07-23 10:17:00,83.9,63.3,29.85,SW,215,13.8,13.8,50,0.00,CLR,FEW,0.00,WeatherDisplay:10.37,2016-07-23 14:17:00,
2016-07-23 10:22:00,83.7,63.1,29.85,ESE,117,13.8,13.8,50,0.00,CLR,FEW,0.00,WeatherDisplay:10.37,2016-07-23 14:22:00,
2016-07-23 10:27:00,84.3,63.6,29.85,SSE,148,10.4,10.4,50,0.00,CLR,FEW,0.00,WeatherDisplay:10.37,2016-07-23 14:27:00,
2016-07-23 10:32:00,85.1,64.4,29.85,WSW,240,9.2,9.2,50,0.00,CLR,FEW,0.00,WeatherDisplay:10.37,2016-07-23 14:32:00,
2016-07-23 10:37:00,85.3,64.6,29.85,SSW,199,6.9,6.9,50,0.00,CLR,FEW,0.00,WeatherDisplay:10.37,2016-07-23 14:37:00,
2016-07-23 10:42:00,85.5,64.7,29.85,SSW,203,8.1,8.1,50,0.00,CLR,FEW,0.00,WeatherDisplay:10.37,2016-07-23 14:42:00,
2016-07-23 10:47:00,86.2,65.4,29.85,WSW,256,9.2,9.2,50,0.00,CLR,FEW,0.00,WeatherDisplay:10.37,2016-07-23 14:47:00,
2016-07-23 10:52:00,86.3,65.5,29.85,South,169,10.4,10.4,50,0.00,CLR,FEW,0.00,WeatherDisplay:10.37,2016-07-23 14:52:00,
2016-07-23 10:57:00,86.4,65.6,29.85,South,186,4.6,4.6,50,0.00,CLR,FEW,0.00,WeatherDisplay:10.37,2016-07-23 14:57:00,
2016-07-23 11:02:00,86.1,65.3,29.85,ESE,121,9.2,9.2,50,0.00,CLR,FEW,0.00,WeatherDisplay:10.37,2016-07-23 15:02:00,
2016-07-23 11:07:00,86.2,65.4,29.85,South,184,9.2,9.2,50,0.00,CLR,FEW,0.00,WeatherDisplay:10.37,2016-07-23 15:07:00,
2016-07-23 11:12:00,85.6,64.8,29.85,South,179,16.1,16.1,50,0.00,CLR,FEW,0.00,WeatherDisplay:10.37,2016-07-23 15:12:00,
2016-07-23 11:17:00,85.8,65.0,29.86,SSE,152,11.1,11.1,50,0.00,CLR,FEW,0.00,WeatherDisplay:10.37,2016-07-23 15:17:00,
2016-07-23 11:22:00,86.3,65.5,29.85,SSE,164,10.4,10.4,50,0.00,CLR,FEW,0.00,WeatherDisplay:10.37,2016-07-23 15:22:00,
2016-07-23 11:27:00,86.7,65.8,29.85,SSE,158,11.5,11.5,50,0.00,CLR,FEW,0.00,WeatherDisplay:10.37,2016-07-23 15:27:00,
2016-07-23 11:32:00,87.3,66.4,29.85,SE,130,6.9,6.9,50,0.00,CLR,FEW,0.00,WeatherDisplay:10.37,2016-07-23 15:32:00,
2016-07-23 11:37:00,87.3,66.4,29.85,SW,220,12.7,12.7,50,0.00,CLR,FEW,0.00,WeatherDisplay:10.37,2016-07-23 15:37:00,
2016-07-23 11:42:00,87.0,66.1,29.85,SSE,158,13.0,13.0,50,0.00,CLR,FEW,0.00,WeatherDisplay:10.37,2016-07-23 15:42:00,
2016-07-23 11:47:00,87.7,66.8,29.85,SSW,212,6.9,6.9,50,0.00,CLR,FEW,0.00,WeatherDisplay:10.37,2016-07-23 15:47:00,
2016-07-23 11:52:00,87.6,66.7,29.85,SSE,161,16.1,16.1,50,0.00,CLR,FEW,0.00,WeatherDisplay:10.37,2016-07-23 15:52:00,
2016-07-23 11:57:00,87.0,66.1,29.85,South,182,9.3,9.3,50,0.00,CLR,FEW,0.00,WeatherDisplay:10.37,2016-07-23 15:57:00,
2016-07-23 12:02:00,87.6,66.7,29.85,SSE,155,11.1,11.1,50,0.00,CLR,FEW,0.00,WeatherDisplay:10.37,2016-07-23 16:02:00,
2016-07-23 12:07:00,87.3,66.4,29.85,SW,216,12.7,12.7,50,0.00,CLR,FEW,0.00,WeatherDisplay:10.37,2016-07-23 16:07:00,
2016-07-23 12:12:00,86.9,66.0,29.85,SW,226,11.5,11.5,50,0.00,CLR,FEW,0.00,WeatherDisplay:10.37,2016-07-23 16:12:00,
2016-07-23 12:17:00,87.6,66.7,29.85,ESE,120,18.4,18.4,50,0.00,CLR,FEW,0.00,WeatherDisplay:10.37,2016-07-23 16:17:00,
2016-07-23 12:22:00,87.3,66.4,29.85,SW,229,9.2,9.2,50,0.00,CLR,FEW,0.00,WeatherDisplay:10.37,2016-07-23 16:22:00,